Flag for U.S.A. Weather past 2 weeks in Provo, Utah, U.S.A.

Now
28 °F

Sunny.


Feels Like: 28 °F
Forecast: 26 / 48 °F
Wind: No wind

Location: Heber City Municipal-Russ McDonald Field Airport

Current Time: Jan 26, 2015 at 10:18:16 AM

Latest Report: Jan 26, 2015 at 9:55 AM


Visibility: 10 mi

Pressure: 30.43 "Hg

Humidity: 86%

Dew point: 25 °F

Location of ProvoLocation

Historic Weather in Provo — Graph

°F

Provo temperature yesterday

Maximum temperature yesterday: 45 °F (at 1:15 PM)
Minimum temperature yesterday: 25 °F (at 11:55 PM)
Average temperature yesterday: 33 °F

Past Weeks' High & Low Weather Summary

 TemperatureHumidityPressure
High45 °F (Jan 16, 2:35 PM)100% (Jan 11, 10:15 AM)30.51 "Hg (Jan 11, 10:15 AM)
Low1 °F (Jan 22, 6:55 AM)31% (Jan 16, 3:55 PM)30.04 "Hg (Jan 12, 4:55 PM)
Average26 °F80%30.30 "Hg
* Reported Jan 11 9:15 AM — Jan 26 9:15 AM, Provo, Weather by CustomWeather, © 2014

Note: Actual official high and low records may vary slightly from our data, if they occured in-between our weather recording intervals... More about our weather records

Advertising

Provo weather history for previous 24 hours

 ConditionsComfort  
Time TempWeatherWind HumidityBarometerVisibility
9:15 AM
Jan 26
25 °FSunny.No wind93%30.44 "Hg7 mi
8:55 AM23 °FSunny.No wind93%30.45 "Hg7 mi
8:35 AM23 °FSunny.No wind93%30.45 "Hg7 mi
8:15 AM21 °FSunny.No wind93%30.45 "Hg10 mi
7:55 AM23 °FSunny.5 mph93%30.44 "Hg10 mi
7:35 AM21 °FClear.5 mph93%30.45 "Hg10 mi
7:15 AM19 °FClear.3 mph100%30.45 "Hg10 mi
6:55 AM19 °FClear.No wind100%30.45 "Hg7 mi
6:15 AM21 °FIce fog.No wind93%30.43 "Hg3 mi
5:55 AM21 °FPassing clouds.No wind93%30.43 "Hg10 mi
5:35 AM23 °FClear.No wind100%30.43 "Hg10 mi
5:15 AM25 °FClear.5 mph93%30.43 "Hg10 mi
4:55 AM21 °FClear.7 mph100%30.43 "Hg10 mi
4:35 AM23 °FClear.3 mph93%30.43 "Hg10 mi
4:15 AM25 °FClear.No wind93%30.43 "Hg10 mi
3:55 AM23 °FClear.No wind93%30.42 "Hg10 mi
3:35 AM23 °FClear.No wind93%30.42 "Hg10 mi
3:15 AM23 °FClear.No wind93%30.43 "Hg10 mi
2:55 AM23 °FClear.No wind93%30.43 "Hg10 mi
2:35 AM23 °FClear.3 mph100%30.43 "Hg10 mi
2:15 AM23 °FClear.3 mph93%30.43 "Hg10 mi
1:55 AM23 °FClear.3 mph93%30.42 "Hg10 mi
1:35 AM27 °FClear.No wind93%30.42 "Hg10 mi
1:15 AM27 °FClear.No wind86%30.42 "Hg10 mi
12:55 AM25 °FClear.No wind93%30.42 "Hg10 mi
12:35 AM27 °FClear.5 mph100%30.42 "Hg10 mi
12:15 AM25 °FClear.5 mph93%30.42 "Hg10 mi
11:55 PM
Jan 25
25 °FThunderstorms. Clear.No wind93%30.42 "Hg10 mi
11:15 PM28 °FClear.No wind93%30.41 "Hg10 mi
10:35 PM28 °FClear.3 mph93%30.40 "Hg10 mi
10:15 PM30 °FClear.No wind93%30.40 "Hg10 mi
9:55 PM30 °FClear.No wind93%30.39 "Hg10 mi
9:35 PM30 °FClear.No wind93%30.39 "Hg10 mi
9:15 PM32 °FClear.No wind87%30.39 "Hg10 mi
8:55 PM30 °FClear.No wind93%30.39 "Hg10 mi
8:15 PM30 °FThunderstorms. Clear.No wind86%30.40 "Hg10 mi
7:55 PM30 °FClear.No wind86%30.41 "Hg10 mi
7:35 PM32 °FClear.No wind93%30.41 "Hg10 mi
7:15 PM32 °FClear.No wind87%30.41 "Hg10 mi
6:55 PM32 °FClear.No wind87%30.41 "Hg10 mi
6:35 PM32 °FClear.No wind87%30.40 "Hg10 mi
6:15 PM32 °FClear.No wind87%30.40 "Hg10 mi
5:55 PM32 °FClear.No wind87%30.40 "Hg10 mi
5:15 PM37 °FSunny.No wind75%30.40 "Hg10 mi
4:55 PM41 °FSunny.No wind70%30.39 "Hg10 mi
4:35 PM41 °FSunny.No wind70%30.39 "Hg10 mi
4:15 PM43 °FSunny.No wind66%30.39 "Hg10 mi
3:55 PM45 °FSunny.No wind61%30.40 "Hg10 mi
3:15 PM45 °FSunny.No wind61%30.40 "Hg10 mi
2:35 PM45 °FSunny.No wind61%30.40 "Hg10 mi
2:15 PM43 °FSunny.No wind61%30.40 "Hg10 mi
1:55 PM41 °FSunny.3 mph66%30.41 "Hg10 mi
1:35 PM45 °FSunny.3 mph61%30.42 "Hg10 mi
1:15 PM45 °FSunny.No wind61%30.43 "Hg10 mi
12:55 PM43 °FSunny.6 mph66%30.43 "Hg10 mi
12:35 PM43 °FSunny.5 mph61%30.44 "Hg10 mi
12:15 PM41 °FSunny.6 mph66%30.45 "Hg10 mi
11:55 AM39 °FSunny.No wind65%30.46 "Hg10 mi
11:35 AM37 °FSunny.No wind65%30.47 "Hg10 mi
11:15 AM36 °FScattered clouds.No wind70%30.47 "Hg10 mi
10:55 AM36 °FPartly sunny.No wind75%30.48 "Hg10 mi
10:15 AM34 °FOvercast.No wind75%30.47 "Hg10 mi
Weather by CustomWeather, © 2014

See weather overviewHow to use our weather pages